Weather in Irtysh

Russia / Omsk Oblast     54°29′38″N   74°22′40″E
temp.,
°C
wind,
m/s
gust,
m/s
humid.,
%
clouds,
%
prec.,
mm/h
press.,
hPa
HPBL,
m
17 april, sat
sat1700:00+4n610835 0.1 1023455
03:00+1nne5108827 0.0 1024542
06:00−1nne48865 0.0 1026329
09:00+1nne34718 0.0 1027710
12:00+3n22515 0.0 10271035
15:00+6w23370 0.0 10251293
18:00+7w45330 0.0 10241387
21:00+4wsw33515 0.0 102234
18 april, sun
sun1800:00+3sw335918 0.0 102038
03:00+2sw486635 0.0 1018149
06:00+1sw3671100 0.0 101699
09:00+5wsw5962100 0.0 1013317
12:00+10wsw71345100 0.0 10111783
15:00+11w91446100 0.1 10082372
18:00+6wnw101578100 0.2 10091372
21:00−3nnw10146870 0.1 10161160
19 april, mon
mon1900:00−4n9126381 0.2 10201188
03:00−5n710565 0.0 10231073
06:00−7n79525 0.0 10261054
09:00−6n784212 0.0 10281214
12:00−4nnw673588 0.0 10291671
15:00−2nnw6732100 0.0 10292106
18:00−3n6734100 0.0 10301976
21:00−4n47445 0.0 1031814
20 april, tue
tue2000:00−5n46505 0.0 10321159
03:00−5n46535 0.0 10321127
06:00−6n35590 0.0 1033751
09:00−4nnw45445 0.0 10331213
12:00−1nw45355 0.0 10321484
15:00+1wnw56335 0.0 10301706
18:00+2w683471 0.0 10281711
21:000wsw5115077 0.0 1027297
21 april, wed
wed2100:000wsw71452100 0.0 1024525
03:00+1w81556100 0.0 1021572
06:000wnw71497100 0.7 1021686
09:00+1nnw6119099 0.4 10221006
12:00+3n81060100 0.5 10241462
15:00+5n7846100 0.0 10261854
18:00+5n785282 0.0 10291655
21:00+1n6107383 0.0 1032549